Terminal Aerodrome Forecast
Issued by NWS

Current Version | Previous Version | Text Only | Print | Product List | Glossary On
Versions: 1 2 3 4 5 6 7 8 9 10 11 12 13 14 15 16 17 18 19 20 21 22 23 24 25 26 27 28 29 30 31 32 33 34 35 36 37 38 39 40 41 42 43 44 45 46 47 48 49 50
000
FTUS42 KEYW 231600 AAB
TAFMTH
TAF AMD
KMTH 231615Z 2316/2412 08010KT P6SM VCSH SCT020 BKN035 OVC070
     FM231715 07010G15KT 3SM -RA SCT015 BKN025 OVC060
     FM231830 06010KT P6SM VCSH SCT016 SCT030 OVC060=

USA.gov is the U.S. government's official web portal to all federal, state and local government web resources and services.